Voltar ao catálogo

USA 473

AtivoMilitarVLEO
NORAD 62542·PAYLOAD·🇺🇸 United States

Lançado Jan 10, 2025 de Vandenberg Space Force Base

Loading…

Próximas Passagens (próximas 24 horas)

TLE

ObsoletoSource: Mike McCants

Época: Aug 21, 2026, 20:57 UTC

1 62542U 25005L   26233.87340963 0.00000000  00000-0  00000-0 0    00
2 62542  70.0200 252.1175 0003000 135.4484 224.5515 14.96713439    06

Acompanhe USA 473 em tempo real com AllMySat

Download on the App Store